Wetbulb
47.46 49.68 53.45 55.77 56.66 57.36 57.63 57.99 58.43 57.63 58.21 61.05 64.37 64.80 65.09 62.67 61.55 60.22 59.81 59.85 59.59 59.44 59.55 59.26 58.73 59.11 57.98 56.73 55.31 55.18 53.94 55.04 52.81 54.79 54.06 53.10 53.03 53.35 52.97 52.64 52.77 51.95 50.92
46.55 47.44 48.73 50.03 54.09 55.57 55.47 55.24 54.92 54.92 56.29 56.01 56.65 58.50 61.58 63.26 62.80 61.11 59.74 59.51 59.03 58.52 58.93 58.74 58.48 58.33 58.12 56.94 55.18 54.36 53.55 54.86 54.20 52.76 51.82 50.30 51.80 53.35 53.33 51.65 51.74 52.07 52.15
46.03 46.17 46.35 47.11 48.00 50.21 54.29 54.34 54.14 53.91 53.63 54.26 54.71 54.85 56.31 56.17 58.66 62.42 61.28 60.31 59.24 59.33 59.32 59.02 58.91 58.81 57.31 57.62 55.88 54.30 54.27 53.83 54.29 53.19 53.13 49.45 51.18 51.61 50.98 50.76 51.00 51.38 51.56
44.33 44.08 45.13 45.89 46.76 47.41 49.67 51.12 50.87 52.04 51.68 51.56 51.72 52.22 53.07 53.77 55.49 58.56 61.42 60.53 59.71 59.50 59.37 59.41 59.40 58.87 58.36 57.51 57.28 55.39 54.80 54.14 53.57 52.48 52.50 46.29 47.25 46.72 50.44 48.93 47.82 50.24 49.57
42.42 42.27 42.63 44.85 46.46 45.80 45.34 46.76 47.08 45.87 48.06 49.15 48.96 48.71 48.79 51.05 50.18 49.41 52.44 57.85 59.49 58.25 57.93 58.36 58.63 57.61 53.18 55.59 57.57 56.95 56.06 54.61 53.46 52.18 51.61 50.23 42.84 43.42 48.16 48.21 48.37 48.20 47.26
41.87 42.20 42.90 42.82 44.75 44.44 43.54 44.92 46.76 47.01 45.68 43.35 43.44 44.43 46.81 47.50 41.79 39.58 43.33 49.94 53.65 58.51 57.51 57.27 57.77 51.88 50.75 46.72 46.72 47.26 54.20 55.73 54.41 53.96 52.48 51.50 49.00 49.39 48.96 48.41 47.32 40.54 38.73
40.55 41.61 42.17 42.50 42.01 42.18 42.32 42.21 42.52 42.86 42.71 42.53 41.91 42.24 42.34 43.23 38.25 38.33 37.68 45.67 48.77 51.14 56.37 57.55 56.95 57.23 51.26 55.97 47.73 45.61 45.40 44.36 45.45 55.36 53.24 53.40 46.92 49.48 49.14 45.76 45.71 44.79 45.29
39.89 40.29 40.66 40.73 40.08 40.57 40.74 40.01 39.27 40.71 42.35 41.46 40.79 41.29 41.84 43.07 39.80 37.64 36.75 41.65 44.72 46.52 49.29 53.43 56.69 55.95 54.32 54.95 55.25 53.02 52.76 52.69 48.85 48.18 52.14 53.87 50.49 49.05 49.45 49.02 46.65 42.73 35.45
39.15 39.36 40.17 39.01 39.07 38.63 38.20 38.69 38.92 39.68 38.80 38.79 39.52 39.68 40.59 39.86 39.24 37.97 36.72 40.57 42.85 42.36 45.44 47.26 51.77 54.74 49.33 46.52 54.61 53.74 50.44 49.81 47.01 45.56 46.81 45.99 43.80 43.10 46.45 42.56 36.19 37.28 32.40
38.80 38.78 39.59 39.29 38.16 37.86 37.48 36.44 36.18 37.66 37.00 35.47 35.64 36.70 37.71 36.82 38.10 38.10 37.39 36.91 36.87 38.66 39.85 41.51 40.37 43.24 43.46 42.37 51.80 53.00 50.24 46.85 42.17 39.29 40.37 41.46 42.64 42.92 40.42 47.85 41.89 41.27 33.83
38.07 38.05 37.92 37.85 37.15 36.26 35.53 34.55 34.45 34.15 34.68 36.01 35.63 35.05 34.74 35.22 36.13 37.66 37.92 35.05 35.45 35.63 36.90 38.36 37.28 38.20 38.91 39.29 42.19 52.28 48.56 39.83 36.57 38.02 37.28 37.28 39.99 42.21 43.15 44.83 42.63 43.71 35.76
36.46 35.89 35.48 34.95 34.95 35.51 32.68 32.94 32.46 33.44 33.47 33.64 34.38 34.69 34.71 33.82 35.76 36.40 37.23 36.80 36.11 34.54 34.90 36.17 36.35 37.06 37.79 38.00 38.18 40.01 37.28 35.46 36.35 35.63 35.45 34.56 35.12 36.75 38.20 36.37 36.39 36.37 36.42
33.72 32.98 32.75 32.69 32.63 32.19 31.16 32.45 32.95 33.41 34.87 35.04 35.23 34.58 34.57 33.14 35.29 36.21 36.15 35.91 35.42 33.64 34.74 35.24 35.60 36.16 36.16 34.21 35.83 35.76 34.53 35.46 34.56 33.65 33.65 32.91 32.75 33.47 33.67 33.62 33.27 33.44 33.08
32.11 31.86 31.80 30.62 31.00 29.94 29.80 31.81 32.26 32.93 33.23 34.22 35.40 34.72 34.17 34.07 34.50 34.65 33.45 34.36 35.14 33.39 32.55 33.06 32.31 31.79 32.82 32.79 32.90 32.90 33.65 34.72 34.90 33.98 33.09 32.40 32.75 33.45 33.45 33.44 33.21 33.44 32.69
33.17 33.00 32.70 33.15 32.90 32.84 32.90 32.55 32.01 33.35 34.33 34.15 34.54 34.54 32.91 33.08 33.66 34.93 34.73 33.27 33.26 33.06 32.49 32.34 32.35 32.16 32.16 32.14 32.14 32.16 32.90 33.82 33.44 32.73 32.71 32.53 32.73 32.88 32.68 33.68 33.42 32.61 30.16
32.06 32.72 32.87 32.56 32.44 32.13 32.04 31.69 33.62 33.09 34.23 35.04 35.66 35.06 35.61 35.08 35.77 36.20 35.44 35.29 34.72 32.62 32.52 32.35 32.17 32.32 32.28 32.23 32.07 31.75 31.96 32.43 32.73 33.02 32.72 32.85 32.28 32.10 31.75 32.40 33.30 32.26 30.35
31.91 32.29 31.90 32.30 32.21 32.09 31.61 30.58 29.84 32.55 33.90 34.58 35.05 35.36 34.97 35.97 35.46 36.00 35.64 34.88 33.98 32.93 32.47 32.65 32.64 32.47 32.05 32.04 31.98 31.87 31.00 31.54 32.37 32.67 32.61 32.25 31.89 31.56 31.69 31.57 31.54 31.34 30.32
32.45 32.10 31.92 31.89 31.76 31.59 31.31 30.94 31.51 31.09 30.60 32.69 34.14 34.59 34.88 35.47 35.48 35.41 35.08 33.86 31.89 33.14 33.77 32.84 32.51 32.34 32.14 32.14 31.98 31.42 31.44 31.96 31.95 32.11 32.08 31.87 32.06 31.48 31.05 31.09 31.17 30.60 30.09
31.79 32.10 32.18 32.21 32.19 31.98 32.00 31.64 31.49 31.24 31.88 32.70 33.45 32.37 33.87 34.37 34.42 34.55 33.95 33.20 32.58 32.64 32.69 32.66 32.82 32.66 32.52 32.49 32.17 32.14 32.29 31.93 31.93 32.13 31.89 32.00 32.10 31.83 31.05 31.38 30.97 30.43 30.13
32.39 32.18 32.04 31.85 31.65 31.79 32.16 31.48 31.17 31.18 31.83 32.79 32.87 32.89 32.20 32.58 31.68 32.02 32.79 33.03 33.11 32.87 32.87 32.66 32.66 32.85 32.67 32.66 32.55 32.44 32.14 31.96 31.96 31.92 31.90 32.01 32.13 31.82 30.93 30.73 30.46 29.68 29.27
32.04 32.04 32.19 31.85 32.01 31.85 32.01 31.41 31.38 31.96 32.28 32.52 32.54 32.54 32.79 32.78 32.25 32.45 32.67 32.91 32.87 32.69 32.52 32.66 32.49 32.67 32.67 32.67 32.66 32.31 32.11 31.98 31.95 31.90 31.61 31.55 31.85 30.51 31.00 31.14 30.63 30.17 29.88
32.21 31.86 31.86 31.54 31.71 31.38 31.93 32.08 32.11 32.37 32.51 31.99 31.55 31.52 32.07 32.67 32.70 32.48 32.51 32.61 33.06 33.69 33.78 33.44 33.03 32.82 32.97 32.96 32.79 32.81 32.31 32.13 32.16 32.13 31.89 31.98 31.55 31.19 31.14 30.65 30.37 30.22 29.83
32.21 31.71 31.66 31.54 30.97 30.29 30.54 31.37 31.24 31.57 31.36 31.18 31.16 30.95 31.84 32.22 32.19 31.96 31.68 31.92 32.40 32.55 33.27 33.41 32.91 32.31 32.52 32.93 33.36 33.48 32.64 32.28 32.49 33.06 32.29 31.90 31.35 31.32 31.50 30.60 30.23 29.83 29.61
31.89 31.59 31.26 30.85 30.45 30.28 29.25 29.32 30.09 30.63 31.18 31.54 31.66 31.98 31.95 31.98 31.84 31.73 31.71 31.73 31.73 31.76 32.31 32.34 31.86 30.61 30.29 31.00 31.25 31.16 31.56 32.46 32.97 32.88 33.00 32.28 31.21 31.24 31.03 30.29 29.75 29.54 29.21
31.90 31.47 31.30 30.71 30.49 30.34 30.32 30.32 29.61 30.58 30.58 31.07 31.30 31.27 31.47 31.66 31.48 31.51 31.69 31.66 31.48 31.60 31.30 31.38 31.46 30.31 28.06 25.97 27.03 28.25 29.70 30.50 31.29 31.90 32.06 31.44 30.76 30.38 29.72 29.22 29.06 28.07 28.06
31.54 31.36 30.94 30.68 30.66 30.70 30.50 29.95 29.78 29.95 29.77 30.16 30.53 30.89 31.07 30.68 30.68 30.67 30.68 30.64 30.23 30.14 30.22 30.61 29.53 27.19 27.28 27.00 27.54 28.91 28.78 29.70 30.23 30.37 30.64 30.37 29.48 28.82 29.09 28.33 27.78 27.41 26.76
MSLP
1000.54 1000.60 1000.56 1000.46 1000.57 1000.74 1001.13 1001.74 1002.11 1002.81 1003.15 1003.49 1003.38 1004.25 1004.59 1005.11 1006.37 1007.10 1007.63 1008.05 1008.37 1008.81 1009.30 1009.75 1010.26 1010.83 1011.58 1012.31 1013.04 1013.79 1014.62 1015.14 1015.74 1015.63 1016.17 1016.89 1017.65 1017.89 1018.27 1018.78 1019.30 1019.87 1020.40
1002.00 1002.00 1002.07 1002.01 1002.04 1002.06 1002.19 1002.67 1002.99 1003.22 1003.65 1004.00 1004.68 1003.89 1004.62 1004.89 1005.76 1005.98 1006.72 1007.32 1007.74 1008.15 1008.57 1009.03 1009.40 1009.94 1010.45 1011.19 1011.95 1012.61 1013.26 1013.69 1014.53 1015.03 1015.52 1016.17 1016.40 1016.66 1017.01 1017.82 1018.25 1018.72 1019.15
1002.87 1003.21 1003.20 1002.99 1003.10 1003.36 1003.51 1003.70 1003.94 1003.88 1004.28 1004.56 1004.45 1005.16 1004.39 1004.94 1004.73 1002.60 1005.08 1005.74 1006.01 1006.77 1007.24 1008.05 1008.59 1009.14 1009.73 1010.36 1010.92 1011.49 1012.15 1012.78 1013.41 1013.83 1014.32 1015.31 1015.72 1016.15 1016.81 1017.32 1017.60 1017.97 1018.15
1003.87 1003.82 1004.19 1004.13 1003.56 1003.84 1004.26 1004.52 1004.79 1004.77 1004.65 1004.66 1005.13 1004.96 1005.41 1005.16 1004.99 1004.97 1004.68 1004.37 1005.33 1005.51 1006.02 1007.11 1007.90 1008.43 1008.67 1009.24 1010.02 1010.72 1011.46 1012.13 1012.78 1013.29 1013.81 1014.82 1015.25 1015.85 1016.16 1016.72 1017.07 1017.14 1017.39
1005.45 1004.98 1005.17 1005.67 1004.94 1004.37 1004.51 1004.70 1005.33 1005.79 1005.59 1005.48 1005.39 1005.52 1005.92 1006.90 1005.70 1006.10 1005.31 1004.93 1005.14 1005.24 1006.02 1006.51 1006.70 1007.26 1007.75 1008.35 1009.24 1009.85 1010.49 1010.99 1011.46 1012.10 1012.54 1013.53 1014.55 1015.19 1015.22 1014.94 1015.79 1016.47 1017.03
1005.91 1006.07 1006.14 1006.38 1006.81 1005.18 1004.73 1004.98 1004.95 1005.35 1005.85 1006.09 1006.40 1006.39 1006.58 1006.21 1006.68 1006.96 1006.47 1005.85 1005.57 1005.31 1005.46 1005.81 1006.28 1006.82 1007.37 1007.81 1008.20 1008.64 1009.18 1009.66 1010.05 1010.71 1011.12 1011.45 1012.44 1013.20 1014.07 1014.49 1015.28 1016.23 1017.35
1006.23 1006.61 1006.36 1006.74 1007.37 1006.20 1005.66 1005.28 1005.57 1005.82 1005.59 1005.57 1006.13 1006.30 1006.19 1006.39 1006.54 1006.54 1006.78 1006.59 1005.80 1005.27 1005.21 1005.37 1005.35 1005.38 1006.27 1007.19 1007.17 1007.50 1007.43 1008.48 1008.90 1009.50 1009.87 1009.98 1011.01 1011.93 1012.76 1013.48 1013.95 1014.47 1015.11
1007.07 1006.84 1007.76 1006.71 1007.45 1006.50 1006.14 1006.02 1005.57 1005.67 1006.24 1006.18 1006.39 1006.09 1005.80 1005.77 1005.90 1006.20 1006.38 1006.68 1006.67 1006.02 1005.54 1005.01 1004.73 1005.14 1005.52 1006.03 1006.23 1006.81 1007.13 1007.79 1008.35 1009.13 1009.06 1009.37 1010.08 1010.81 1011.34 1011.29 1012.28 1013.70 1015.26
1007.63 1007.42 1007.43 1007.05 1006.86 1007.08 1006.15 1006.11 1006.01 1005.87 1005.89 1005.99 1006.27 1006.51 1006.37 1006.12 1006.10 1006.05 1006.23 1006.06 1005.86 1005.53 1005.52 1005.07 1004.77 1004.42 1004.48 1004.97 1005.46 1005.91 1006.50 1006.51 1006.60 1007.39 1008.20 1008.69 1009.00 1009.45 1010.56 1012.13 1012.98 1014.16 1015.35
1008.00 1008.13 1007.53 1007.14 1007.32 1006.87 1006.17 1006.53 1006.18 1005.92 1005.98 1005.74 1006.09 1006.38 1006.40 1006.47 1006.37 1006.25 1006.30 1006.13 1006.16 1006.15 1005.72 1004.99 1004.47 1004.54 1004.21 1004.15 1004.72 1004.87 1005.48 1006.14 1006.86 1007.24 1007.35 1008.00 1008.35 1008.83 1009.66 1010.26 1011.71 1012.84 1014.30
1008.52 1008.32 1007.53 1007.54 1007.49 1006.66 1006.35 1005.99 1006.22 1006.28 1005.89 1005.93 1006.38 1006.23 1006.34 1005.75 1005.74 1006.00 1005.97 1006.15 1006.27 1006.11 1005.65 1005.04 1004.32 1004.29 1004.23 1004.32 1004.37 1004.15 1004.45 1005.40 1006.30 1006.58 1007.20 1007.93 1008.43 1009.01 1009.69 1010.00 1010.60 1011.64 1012.75
1008.02 1007.53 1007.41 1007.17 1006.70 1006.58 1006.29 1006.07 1005.81 1006.11 1005.81 1005.54 1005.85 1006.16 1005.91 1005.60 1005.67 1005.48 1005.45 1005.35 1005.43 1005.71 1005.12 1004.87 1004.26 1003.81 1004.16 1004.31 1004.32 1004.36 1004.52 1005.05 1006.33 1007.26 1007.48 1008.11 1008.90 1009.32 1009.90 1009.92 1010.50 1011.03 1012.07
1007.66 1007.45 1007.54 1007.30 1006.71 1006.65 1006.17 1006.23 1005.90 1005.63 1005.15 1005.19 1005.59 1005.66 1005.26 1005.20 1005.22 1005.16 1004.91 1004.81 1004.70 1004.91 1004.74 1004.88 1004.10 1003.61 1004.07 1004.20 1004.34 1004.36 1005.01 1005.53 1006.30 1007.26 1007.87 1008.37 1008.62 1009.13 1009.88 1010.44 1011.19 1011.65 1012.53
1007.53 1007.41 1007.17 1006.85 1006.61 1006.25 1006.19 1005.87 1005.33 1004.49 1004.40 1004.81 1004.71 1004.72 1004.64 1004.76 1004.75 1004.51 1003.93 1004.13 1004.69 1004.75 1004.90 1004.68 1004.37 1004.54 1004.48 1004.64 1004.89 1005.01 1005.03 1005.39 1006.06 1006.90 1007.62 1008.12 1008.48 1009.17 1009.95 1010.46 1011.58 1011.98 1012.78
1007.85 1007.33 1006.75 1006.14 1005.56 1005.12 1005.00 1004.71 1003.86 1003.43 1003.39 1003.41 1003.14 1003.37 1003.42 1004.01 1003.62 1003.01 1003.27 1003.96 1004.28 1004.05 1004.84 1004.86 1005.17 1004.61 1004.20 1005.12 1005.42 1005.52 1005.67 1005.23 1005.99 1006.74 1007.37 1008.27 1008.93 1009.71 1010.39 1011.00 1011.52 1012.00 1012.65
1007.32 1006.46 1005.90 1005.42 1004.70 1004.20 1003.68 1002.74 1002.52 1002.50 1002.54 1002.38 1002.45 1002.69 1001.97 1002.27 1002.39 1002.69 1003.41 1002.81 1003.30 1003.39 1004.08 1004.37 1004.52 1004.48 1004.01 1004.65 1005.45 1006.03 1006.36 1006.65 1006.07 1006.28 1006.97 1008.18 1009.02 1009.56 1010.22 1011.29 1012.02 1012.12 1012.95
1006.08 1005.10 1004.33 1003.92 1003.32 1002.64 1002.31 1002.19 1001.39 1000.99 1000.89 1001.04 1000.89 1001.06 1001.51 1001.62 1001.87 1002.08 1002.09 1002.59 1002.59 1003.26 1002.86 1003.54 1003.94 1004.13 1003.78 1004.51 1005.17 1005.31 1006.18 1006.89 1006.47 1006.86 1007.13 1008.38 1008.72 1009.26 1010.48 1011.19 1012.19 1012.49 1013.23
1005.27 1004.28 1003.40 1002.56 1001.82 1001.31 1000.82 1000.78 1001.25 1000.62 999.99 999.81 999.83 999.85 999.99 1000.53 1001.09 1001.30 1001.54 1001.66 1002.61 1003.20 1002.72 1002.20 1003.26 1003.71 1004.09 1004.25 1005.07 1005.48 1006.51 1006.55 1006.51 1007.59 1008.23 1008.58 1008.82 1009.33 1010.53 1011.51 1012.70 1013.05 1013.53
1004.15 1003.19 1002.42 1001.64 1001.08 1000.57 1000.25 1000.18 999.87 999.32 998.69 998.51 998.85 999.16 999.24 999.56 1000.24 1000.42 1000.70 1000.94 1001.40 1002.06 1002.22 1002.86 1002.88 1003.05 1003.60 1004.65 1004.97 1005.82 1006.55 1006.12 1006.77 1007.72 1008.46 1008.84 1008.98 1009.58 1010.62 1012.10 1012.99 1013.41 1013.76
1003.81 1002.98 1002.18 1001.34 1000.50 999.85 999.11 998.48 997.95 997.66 997.66 997.86 998.11 998.54 998.91 999.30 999.48 999.78 1000.28 1000.56 1000.83 1001.07 1001.85 1002.60 1003.03 1002.59 1003.52 1004.30 1005.11 1006.36 1006.47 1006.20 1007.28 1007.97 1008.80 1009.27 1009.57 1010.21 1010.90 1011.94 1012.76 1013.11 1013.77
1003.57 1002.53 1001.58 1000.56 999.68 998.88 998.00 997.29 996.95 996.82 996.97 997.20 997.48 997.83 998.10 998.68 998.86 999.07 999.61 999.96 1000.27 1000.51 1001.49 1002.43 1002.25 1002.64 1003.65 1004.54 1005.68 1006.47 1006.59 1007.14 1007.29 1008.49 1009.13 1009.71 1009.83 1010.20 1010.81 1011.53 1012.29 1012.99 1013.50
1003.22 1002.22 1001.21 1000.26 999.37 998.38 997.52 996.80 996.57 996.54 996.61 996.81 997.07 997.44 997.80 998.54 998.77 998.83 999.27 999.63 999.99 1000.79 1001.42 1001.87 1002.38 1003.17 1003.86 1004.55 1005.68 1006.39 1006.83 1007.12 1007.71 1008.45 1009.13 1009.65 1009.87 1010.31 1010.65 1011.53 1012.31 1012.76 1013.18
1003.10 1002.16 1001.15 1000.23 999.46 998.55 997.69 996.88 996.44 996.32 996.42 996.65 996.96 997.31 997.78 998.32 998.73 999.06 999.31 999.80 1000.45 1001.01 1001.51 1002.13 1002.71 1003.53 1004.04 1004.86 1005.74 1006.24 1006.86 1007.35 1007.77 1008.83 1009.03 1009.55 1009.84 1010.30 1011.09 1011.63 1012.00 1012.54 1013.35
1003.18 1002.30 1001.36 1000.46 999.66 998.86 998.15 997.57 997.17 996.91 996.85 996.97 997.19 997.52 997.97 998.48 998.85 999.19 999.68 1000.21 1000.73 1001.31 1002.05 1002.59 1003.22 1003.87 1004.59 1005.38 1006.06 1006.73 1007.32 1007.89 1008.36 1008.47 1008.85 1009.60 1009.99 1010.65 1011.23 1011.68 1012.21 1012.99 1013.54
1003.46 1002.64 1001.78 1000.95 1000.15 999.42 998.82 998.35 998.05 997.78 997.70 997.74 997.84 998.07 998.47 998.91 999.27 999.73 1000.13 1000.56 1001.20 1001.95 1002.51 1003.08 1003.81 1004.56 1005.26 1006.11 1006.77 1007.29 1007.79 1007.96 1008.03 1008.66 1009.35 1009.86 1010.30 1010.84 1011.42 1012.11 1012.77 1013.23 1013.56
1003.86 1003.12 1002.43 1001.65 1000.96 1000.30 999.76 999.34 999.05 998.80 998.71 998.69 998.80 998.99 999.23 999.59 1000.00 1000.30 1000.88 1001.57 1001.95 1002.52 1003.27 1003.98 1004.62 1005.40 1006.25 1006.82 1007.15 1007.38 1007.79 1008.28 1008.75 1009.23 1009.64 1010.17 1010.78 1011.39 1011.78 1012.35 1012.82 1013.14 1013.59
Wind_Speed
13 11 11 11 12 10 9 8 7 9 7 1 11 12 15 14 17 17 18 18 19 19 17 18 18 18 11 11 10 11 10 10 11 9 7 10 12 14 12 13 13 14 11
11 11 11 10 9 10 9 8 8 8 6 6 6 4 7 15 15 19 19 17 19 19 20 19 20 13 18 14 12 15 13 15 13 17 6 5 10 15 13 12 12 11 13
10 11 10 10 10 9 7 6 4 7 6 2 2 4 2 2 5 19 19 18 19 19 19 19 19 19 17 13 12 13 12 11 12 11 12 3 6 6 7 7 10 11 11
10 10 10 8 7 7 6 6 6 5 4 5 3 4 5 6 5 5 12 15 15 13 16 17 18 18 19 18 15 15 12 12 12 10 12 4 3 3 6 8 8 9 10
10 8 8 8 5 6 6 6 5 5 5 5 5 6 4 3 7 6 6 5 12 13 15 14 14 17 19 19 13 15 15 13 12 12 12 8 4 4 15 8 10 7 6
3 7 7 6 8 5 6 6 5 4 2 2 3 3 2 2 7 4 6 3 4 13 14 14 14 14 14 13 15 14 16 18 16 13 12 12 13 12 8 9 8 4 3
7 3 5 4 7 5 2 3 2 1 3 5 4 3 4 4 7 8 6 5 5 4 7 13 14 12 15 16 19 21 20 16 17 13 14 14 8 13 11 8 11 11 9
5 6 6 4 7 6 5 4 2 2 4 4 4 5 4 5 9 10 8 4 6 6 6 6 10 11 13 17 15 13 18 16 13 10 9 12 11 13 15 15 13 7 4
7 7 6 6 7 6 6 6 4 3 3 4 3 3 4 5 9 7 5 5 6 7 6 6 7 8 12 18 17 15 11 14 13 18 18 14 17 17 13 8 6 8 2
7 8 8 6 5 7 6 7 4 4 5 1 4 5 6 5 7 7 4 1 4 6 7 7 8 7 9 16 15 13 13 10 8 4 4 6 14 16 22 17 11 12 5
8 8 8 7 6 6 6 3 4 5 4 5 7 4 7 5 6 8 6 2 3 4 5 6 4 7 9 8 16 12 10 6 5 6 4 3 5 9 11 9 13 11 8
7 8 9 9 7 7 5 6 3 4 2 4 4 8 6 5 10 10 9 9 5 4 6 5 6 5 8 10 8 5 10 7 5 4 5 4 4 5 5 5 6 5 4
10 8 7 7 7 8 7 8 7 5 4 5 7 8 6 4 6 11 10 9 7 3 4 7 9 6 3 2 8 13 9 6 6 4 4 4 2 5 8 8 9 11 9
13 12 9 7 8 6 6 6 7 7 6 7 8 9 7 6 7 6 3 3 7 4 2 1 3 4 4 4 4 3 3 6 7 7 5 5 6 5 6 4 5 8 7
13 14 15 12 12 11 10 10 9 10 9 9 9 8 7 8 8 8 7 6 5 4 5 2 1 1 4 2 3 2 2 6 7 6 7 6 6 6 5 5 7 5 5
13 11 10 10 11 11 12 11 16 18 20 22 24 13 7 14 8 9 13 12 14 13 3 3 2 3 5 5 5 3 2 1 5 8 9 8 8 8 7 5 5 7 9
14 15 13 12 11 11 10 11 12 11 20 24 24 22 19 14 13 12 13 13 13 12 4 5 4 5 5 5 5 4 4 2 5 5 7 7 8 8 9 8 6 7 7
14 18 12 11 11 11 11 11 11 11 10 10 15 17 19 21 18 14 13 12 7 6 4 7 7 6 5 6 6 6 6 5 6 6 6 7 8 9 8 7 5 6 7
14 12 12 11 11 12 12 13 13 12 11 9 7 6 13 13 14 13 18 6 8 7 6 5 7 8 7 6 7 5 6 7 7 7 6 7 7 8 8 7 6 8 9
13 17 14 11 10 11 10 10 11 10 10 10 8 9 5 6 6 7 7 5 6 6 6 7 6 7 8 7 7 6 6 7 7 6 6 6 7 6 8 8 7 8 6
10 10 14 10 9 9 10 8 7 7 8 7 7 6 9 7 9 8 7 7 6 7 7 7 7 8 7 7 7 6 7 6 7 6 6 6 7 8 7 7 7 7 7
9 9 9 9 8 8 7 5 4 5 6 6 4 5 10 4 5 6 7 6 6 6 6 7 7 7 7 8 7 7 7 7 7 7 6 7 7 7 7 7 8 8 8
9 10 9 8 7 8 6 4 0 3 4 5 5 6 6 6 6 6 7 7 7 7 6 7 8 7 6 6 5 6 7 6 6 6 7 7 6 6 6 6 7 7 6
9 10 9 8 7 6 5 4 4 4 4 5 6 6 7 7 7 8 8 7 8 7 7 7 7 9 8 6 5 5 5 5 5 6 8 7 7 7 6 6 6 7 6
9 9 8 8 8 7 6 6 5 5 5 5 6 7 7 8 8 8 8 8 8 8 9 8 7 10 10 9 7 8 7 8 7 7 5 7 8 9 7 6 6 6 6
8 9 8 7 8 7 7 6 6 7 7 7 7 7 8 8 8 9 9 9 9 10 10 8 9 11 10 8 8 10 9 8 7 8 6 7 7 6 6 8 8 6 7
Wind_Direction
44 48 54 56 60 74 82 76 85 75 68 92 209 208 208 196 200 203 207 208 202 200 202 202 203 202 197 194 191 199 207 212 227 247 206 192 192 207 206 206 209 208 201
41 46 50 50 54 72 72 76 78 74 62 59 31 99 277 236 219 202 206 206 205 208 209 207 210 203 207 194 192 202 207 215 215 235 201 185 195 202 204 197 204 207 209
44 43 37 53 57 48 49 51 75 104 99 90 56 29 302 48 314 217 206 209 203 209 210 211 212 209 208 205 201 204 209 216 220 219 226 182 198 174 193 197 203 206 211
31 33 27 17 48 62 72 55 31 27 64 90 79 78 329 353 12 324 210 198 201 214 231 214 215 215 212 211 209 205 205 210 213 220 229 171 169 200 195 198 208 204 202
11 40 26 356 24 54 51 64 75 37 20 15 27 15 39 268 55 356 9 269 200 198 204 213 225 217 215 216 210 209 212 212 212 212 216 207 164 165 199 201 215 203 210
97 10 3 16 330 24 47 38 35 13 20 55 359 355 340 73 70 42 347 335 299 214 212 213 214 218 219 213 219 222 216 213 218 218 216 218 199 208 189 201 194 153 202
344 338 336 341 307 338 354 65 46 328 349 343 332 337 3 358 9 19 6 318 295 289 230 213 214 211 204 216 220 221 221 226 230 221 225 226 189 202 194 181 186 190 208
24 9 333 339 297 312 305 274 224 181 206 190 266 310 341 332 338 345 348 311 284 268 268 264 223 209 195 205 214 219 228 228 222 224 229 228 201 195 193 199 198 151 61
9 3 355 357 346 325 325 305 301 276 215 210 202 217 285 307 316 322 338 324 311 298 284 280 286 227 201 199 209 218 220 221 208 211 210 198 185 179 175 129 142 153 142
1 335 334 340 330 334 340 319 284 237 246 203 215 236 247 258 282 297 298 198 280 292 295 281 264 261 254 197 212 220 224 223 197 185 193 211 186 180 169 186 168 183 136
319 312 318 314 307 310 314 320 304 302 285 246 255 258 268 265 275 269 251 220 228 254 269 283 273 265 267 255 219 221 209 166 200 183 153 136 163 176 187 183 172 175 158
317 315 310 309 314 312 304 300 296 263 261 259 254 265 259 262 266 265 241 226 221 244 256 275 279 281 265 242 222 216 140 117 118 131 135 136 156 166 181 137 138 108 105
324 316 297 288 295 293 296 291 289 240 227 250 256 253 261 235 257 250 225 230 249 233 238 251 271 288 254 198 181 151 142 134 138 135 164 151 120 112 113 93 86 92 80
318 312 301 284 283 263 254 258 264 261 244 229 237 240 243 248 241 241 198 221 234 214 186 142 117 111 92 100 91 86 131 151 151 153 140 113 114 120 129 126 127 125 107
299 302 299 293 290 283 270 268 264 260 245 248 239 228 213 232 233 211 197 189 199 178 142 137 215 143 113 101 80 65 119 126 133 131 128 123 119 124 121 125 133 122 114
295 292 284 279 279 282 278 272 246 245 253 251 251 239 241 238 215 201 210 200 182 157 159 171 179 168 144 138 132 116 52 131 129 135 127 134 142 138 130 122 134 129 131
295 298 295 284 277 275 265 267 274 258 244 242 241 231 229 244 219 207 196 185 178 166 166 169 170 167 137 133 138 125 128 114 93 97 116 134 132 122 131 134 133 127 131
291 287 282 280 279 275 269 265 255 248 245 243 242 233 230 236 235 217 182 146 164 224 192 163 159 150 146 137 131 126 131 123 113 122 123 128 130 126 127 124 138 140 143
304 301 297 289 283 274 266 254 249 239 236 237 226 229 220 211 219 200 166 171 176 179 167 161 156 145 134 136 123 125 139 125 119 126 123 130 127 129 130 141 145 144 139
305 296 287 285 284 276 270 256 247 231 230 225 215 225 176 156 180 174 178 173 164 152 149 146 153 130 128 127 123 134 127 118 120 116 127 132 126 130 133 137 140 139 132
303 298 299 293 293 286 280 255 237 219 222 209 200 179 172 195 188 166 165 157 149 139 137 144 132 121 119 122 126 134 124 124 121 129 129 135 135 133 133 130 132 135 132
307 307 309 305 305 305 293 241 213 211 206 190 167 161 157 172 166 147 137 130 121 130 132 133 123 125 130 131 135 136 133 129 129 136 138 141 136 135 135 141 145 142 139
317 316 320 319 318 322 323 330 255 164 153 142 143 143 142 144 139 133 123 121 122 116 112 118 118 111 105 104 110 121 129 134 134 145 140 134 130 129 138 139 136 132 137
326 324 328 331 337 342 345 354 18 57 100 122 134 137 132 131 124 119 117 114 109 104 107 110 106 108 101 96 92 94 105 114 128 124 121 125 118 117 118 116 119 130 133
332 331 334 343 351 356 6 22 31 45 65 87 101 105 107 109 109 107 106 102 101 109 99 98 98 105 104 111 116 116 118 110 102 109 113 120 121 118 117 118 128 122 118
341 343 346 350 2 3 14 26 38 49 59 65 75 83 89 92 93 92 94 104 101 94 95 94 97 101 108 110 118 114 107 108 108 110 108 115 117 121 123 122 118 111 111